When you browse on this site, cookies collect data to enhance your experience and personalize the content and advertising you see.
Visit our Privacy Policy to learn more. By continuing to use the site, you agree to this use of cookies and data.
  • In Hungary
  • List of Countries
  • For 7 days
  • Water Temperature
  • Satellite Maps
  • Weather Map
  • News
  • Weather Widgets
  • user-avatar
    Login

    Hourly Weather Maradi

    Today, 17 November, Saturday

    Time Temperature Precipitation Wind Pressure Humidity
    00:00 +25°C° 0 mm 3 mps 729 mmHg 21%
    01:00 +24°C° 0 mm 3 mps 729 mmHg 22%
    02:00 +24°C° 0 mm 3 mps 729 mmHg 23%
    03:00 +22°C° 0 mm 3 mps 729 mmHg 23%
    04:00 +22°C° 0 mm 3 mps 729 mmHg 24%
    05:00 +22°C° 0 mm 3 mps 729 mmHg 24%
    06:00 +22°C° 0 mm 3 mps 730 mmHg 25%
    07:00 +26°C° 0 mm 4 mps 730 mmHg 21%
    08:00 +29°C° 0 mm 5 mps 730 mmHg 18%
    09:00 +32°C° 0 mm 6 mps 731 mmHg 14%
    10:00 +34°C° 0 mm 5 mps 730 mmHg 13%
    11:00 +35°C° 0 mm 4 mps 730 mmHg 12%
    12:00 +36°C° 0 mm 3 mps 729 mmHg 11%
    13:00 +37°C° 0 mm 2 mps 729 mmHg 10%
    14:00 +37°C° 0 mm 2 mps 728 mmHg 10%
    15:00 +36°C° 0 mm 1 mps 728 mmHg 10%
    16:00 +34°C° 0 mm 1 mps 728 mmHg 12%
    17:00 +31°C° 0 mm 2 mps 728 mmHg 13%
    18:00 +29°C° 0 mm 2 mps 727 mmHg 15%
    19:00 +28°C° 0 mm 2 mps 728 mmHg 15%
    20:00 +28°C° 0 mm 3 mps 728 mmHg 16%
    21:00 +28°C° 0 mm 3 mps 729 mmHg 16%
    22:00 +27°C° 0 mm 3 mps 728 mmHg 17%
    23:00 +27°C° 0 mm 3 mps 728 mmHg 17%

    Tomorrow, 18 November, Sunday

    Time Temperature Precipitation Wind Pressure Humidity
    00:00 +26°C° 0 mm 3 mps 728 mmHg 18%
    01:00 +26°C° 0 mm 3 mps 728 mmHg 18%
    02:00 +25°C° 0 mm 3 mps 728 mmHg 19%
    03:00 +25°C° 0 mm 3 mps 728 mmHg 19%
    04:00 +25°C° 0 mm 3 mps 728 mmHg 20%
    05:00 +24°C° 0 mm 3 mps 728 mmHg 20%
    06:00 +24°C° 0 mm 3 mps 729 mmHg 21%
    07:00 +27°C° 0 mm 4 mps 729 mmHg 18%
    08:00 +30°C° 0 mm 4 mps 730 mmHg 16%
    09:00 +34°C° 0 mm 5 mps 730 mmHg 13%
    10:00 +35°C° 0 mm 4 mps 730 mmHg 13%
    11:00 +36°C° 0 mm 3 mps 729 mmHg 12%
    12:00 +38°C° 0 mm 3 mps 729 mmHg 11%
    13:00 +38°C° 0 mm 2 mps 728 mmHg 11%
    14:00 +38°C° 0 mm 2 mps 727 mmHg 11%
    15:00 +37°C° 0 mm 1 mps 727 mmHg 11%
    16:00 +35°C° 0 mm 1 mps 727 mmHg 12%
    17:00 +34°C° 0 mm 2 mps 727 mmHg 14%
    18:00 +31°C° 0 mm 2 mps 727 mmHg 16%
    19:00 +30°C° 0 mm 3 mps 727 mmHg 16%
    20:00 +30°C° 0 mm 3 mps 728 mmHg 16%
    21:00 +29°C° 0 mm 3 mps 728 mmHg 16%
    22:00 +29°C° 0 mm 3 mps 728 mmHg 16%
    23:00 +28°C° 0 mm 3 mps 728 mmHg 17%

    Day after tomorrow, 19 November, Monday

    Time Temperature Precipitation Wind Pressure Humidity
    00:00 +28°C° 0 mm 3 mps 728 mmHg 17%
    01:00 +27°C° 0 mm 3 mps 727 mmHg 16%
    02:00 +27°C° 0 mm 4 mps 727 mmHg 16%
    03:00 +26°C° 0 mm 4 mps 727 mmHg 16%
    04:00 +26°C° 0 mm 4 mps 727 mmHg 15%
    05:00 +25°C° 0 mm 4 mps 727 mmHg 15%
    06:00 +25°C° 0 mm 4 mps 728 mmHg 15%
    07:00 +28°C° 0 mm 5 mps 728 mmHg 13%
    08:00 +32°C° 0 mm 5 mps 729 mmHg 11%
    09:00 +35°C° 0 mm 6 mps 730 mmHg 10%
    10:00 +36°C° 0 mm 5 mps 729 mmHg 9%
    11:00 +39°C° 0 mm 5 mps 729 mmHg 9%
    12:00 +40°C° 0 mm 4 mps 728 mmHg 9%
    13:00 +39°C° 0 mm 3 mps 727 mmHg 9%
    14:00 +39°C° 0 mm 3 mps 727 mmHg 9%
    15:00 +39°C° 0 mm 2 mps 726 mmHg 9%
    16:00 +37°C° 0 mm 2 mps 726 mmHg 11%
    17:00 +35°C° 0 mm 3 mps 726 mmHg 12%
    18:00 +31°C° 0 mm 3 mps 726 mmHg 13%
    19:00 +31°C° 0 mm 3 mps 727 mmHg 14%
    20:00 +30°C° 0 mm 3 mps 727 mmHg 14%
    21:00 +30°C° 0 mm 3 mps 728 mmHg 14%
    22:00 +29°C° 0 mm 3 mps 728 mmHg 14%
    23:00 +29°C° 0 mm 3 mps 728 mmHg 14%

    20 November, Tuesday

    Time Temperature Precipitation Wind Pressure Humidity
    00:00 +28°C° 0 mm 3 mps 727 mmHg 14%
    01:00 +27°C° 0 mm 4 mps 727 mmHg 14%
    02:00 +27°C° 0 mm 4 mps 727 mmHg 13%
    03:00 +26°C° 0 mm 4 mps 727 mmHg 13%
    04:00 +26°C° 0 mm 4 mps 727 mmHg 13%
    05:00 +26°C° 0 mm 4 mps 728 mmHg 13%
    06:00 +25°C° 0 mm 4 mps 728 mmHg 13%
    07:00 +28°C° 0 mm 4 mps 729 mmHg 11%
    08:00 +32°C° 0 mm 5 mps 729 mmHg 10%
    09:00 +35°C° 0 mm 5 mps 730 mmHg 8%
    10:00 +36°C° 0 mm 4 mps 729 mmHg 8%
    11:00 +38°C° 0 mm 4 mps 729 mmHg 7%
    12:00 +39°C° 0 mm 3 mps 728 mmHg 7%
    13:00 +39°C° 0 mm 3 mps 728 mmHg 7%
    14:00 +40°C° 0 mm 3 mps 727 mmHg 7%
    15:00 +40°C° 0 mm 3 mps 727 mmHg 7%
    16:00 +37°C° 0 mm 3 mps 727 mmHg 8%
    17:00 +35°C° 0 mm 3 mps 727 mmHg 9%
    18:00 +33°C° 0 mm 3 mps 727 mmHg 10%
    19:00 +31°C° 0 mm 3 mps 728 mmHg 10%
    20:00 +30°C° 0 mm 3 mps 728 mmHg 10%
    21:00 +30°C° 0 mm 3 mps 729 mmHg 10%
    22:00 +29°C° 0 mm 3 mps 728 mmHg 10%
    23:00 +28°C° 0 mm 4 mps 728 mmHg 10%

    21 November, Wednesday

    Time Temperature Precipitation Wind Pressure Humidity
    00:00 +27°C° 0 mm 4 mps 728 mmHg 11%
    01:00 +27°C° 0 mm 4 mps 728 mmHg 11%
    02:00 +26°C° 0 mm 4 mps 728 mmHg 11%
    03:00 +26°C° 0 mm 4 mps 727 mmHg 11%
    04:00 +25°C° 0 mm 4 mps 728 mmHg 12%
    05:00 +25°C° 0 mm 4 mps 728 mmHg 12%
    06:00 +25°C° 0 mm 4 mps 728 mmHg 12%
    07:00 +28°C° 0 mm 5 mps 729 mmHg 11%
    08:00 +32°C° 0 mm 5 mps 729 mmHg 9%
    09:00 +34°C° 0 mm 6 mps 730 mmHg 8%
    10:00 +36°C° 0 mm 6 mps 729 mmHg 7%
    11:00 +39°C° 0 mm 6 mps 728 mmHg 7%
    12:00 +40°C° 0 mm 5 mps 728 mmHg 6%
    13:00 +40°C° 0 mm 5 mps 727 mmHg 6%
    14:00 +40°C° 0 mm 5 mps 727 mmHg 6%
    15:00 +40°C° 0 mm 5 mps 726 mmHg 6%
    16:00 +37°C° 0 mm 4 mps 726 mmHg 7%
    17:00 +35°C° 0 mm 4 mps 727 mmHg 8%
    18:00 +33°C° 0 mm 3 mps 727 mmHg 9%
    19:00 +31°C° 0 mm 3 mps 727 mmHg 9%
    20:00 +30°C° 0 mm 3 mps 728 mmHg 9%
    21:00 +29°C° 0 mm 4 mps 728 mmHg 10%
    22:00 +29°C° 0 mm 4 mps 728 mmHg 10%
    23:00 +28°C° 0 mm 4 mps 728 mmHg 10%

    22 November, Thursday

    Time Temperature Precipitation Wind Pressure Humidity
    00:00 +27°C° 0 mm 4 mps 727 mmHg 11%
    01:00 +27°C° 0 mm 4 mps 727 mmHg 11%
    02:00 +26°C° 0 mm 4 mps 727 mmHg 11%
    03:00 +25°C° 0 mm 4 mps 727 mmHg 12%
    04:00 +25°C° 0 mm 4 mps 727 mmHg 12%
    05:00 +25°C° 0 mm 4 mps 728 mmHg 12%
    06:00 +25°C° 0 mm 4 mps 728 mmHg 12%
    07:00 +27°C° 0 mm 5 mps 729 mmHg 11%
    08:00 +30°C° 0 mm 6 mps 729 mmHg 9%
    09:00 +33°C° 0 mm 7 mps 730 mmHg 8%
    10:00 +35°C° 0 mm 7 mps 729 mmHg 7%
    11:00 +36°C° 0 mm 6 mps 728 mmHg 7%
    12:00 +39°C° 0 mm 6 mps 728 mmHg 6%
    13:00 +39°C° 0 mm 5 mps 727 mmHg 6%
    14:00 +39°C° 0 mm 5 mps 727 mmHg 6%
    15:00 +38°C° 0 mm 4 mps 726 mmHg 6%
    16:00 +36°C° 0 mm 4 mps 727 mmHg 7%
    17:00 +33°C° 0 mm 4 mps 727 mmHg 7%
    18:00 +30°C° 0 mm 4 mps 727 mmHg 8%
    19:00 +29°C° 0 mm 4 mps 727 mmHg 8%
    20:00 +28°C° 0 mm 4 mps 728 mmHg 8%
    21:00 +28°C° 0 mm 4 mps 728 mmHg 8%
    22:00 +27°C° 0 mm 4 mps 728 mmHg 8%
    23:00 +26°C° 0 mm 4 mps 727 mmHg 8%
    Show more